Moses Lake, WA
on Wednesday, November 14, 2012

Wednesday
Previous Day Next Day
Daily Summary
 ActualAverageRecord
Temperature
Mean Temperature °F 38°F  
Max Temperature 38°F 47°F 63°F (2001)
Min Temperature 35°F 30°F 12°F (1985)
Degree Days
Heating Degree Days 28 27  
Month to date heating degree days 322 341  
Since 1 July heating degree days 847 978  
Cooling Degree Days 0 0  
Month to date cooling degree days 0 0  
Year to date cooling degree days 719 615  
Moisture
Dew Point 31°F   
Average Humidity 83    
Maximum Humidity 89    
Minimum Humidity 76    
Precipitation
Precipitation 0.00 in 0.04 in 0.29 in (1981)
Month to date precipitation 0.62 0.54  
Year to date precipitation 7.22 7.01  
Wind
Wind Speed 4 mph   
Max Wind Speed 10 mph   
Max Gust Speed 13 mph   
Visibility 9 miles   
Events     

Key: T is trace of precipitation, MM is missing value
Source: NWS Daily Summary
Time(PST)TemperatureDew PointHumidity Pressure Visibility Wind DirectionWind SpeedGust SpeedPrecipitationEvents Conditions
12:52 AM 35.1°F 32.0°F 89% 30.24 in 10.0 miles Calm Calm - N/A   Overcast
1:52 AM 35.1°F 30.9°F 85% 30.25 in 10.0 miles WSW 4.6 mph - N/A   Overcast
2:52 AM 36.0°F 30.9°F 82% 30.24 in 10.0 miles West 3.5 mph - N/A   Overcast
3:52 AM 35.1°F 30.9°F 85% 30.23 in 10.0 miles Calm Calm - N/A   Overcast
4:52 AM 36.0°F 30.9°F 82% 30.24 in 10.0 miles Calm Calm - N/A   Overcast
5:52 AM 36.0°F 30.9°F 82% 30.25 in 10.0 miles WSW 3.5 mph - N/A   Overcast
6:52 AM 35.1°F 30.9°F 85% 30.26 in 8.0 miles Calm Calm - N/A   Overcast
7:52 AM 35.1°F 30.9°F 85% 30.28 in 6.0 miles Calm Calm - N/A   Overcast
8:52 AM 35.1°F 30.9°F 85% 30.30 in 5.0 miles NNW 5.8 mph - N/A   Overcast
9:52 AM 35.1°F 30.9°F 85% 30.32 in 6.0 miles NW 4.6 mph - N/A   Overcast
10:52 AM 35.1°F 30.9°F 85% 30.34 in 6.0 miles NNW 6.9 mph - N/A   Overcast
11:21 AM 35.6°F 32.0°F 87% 30.30 in 6.0 miles North 4.6 mph - N/A   Overcast
11:52 AM 35.1°F 32.0°F 89% 30.34 in 7.0 miles NNW 4.6 mph - N/A   Overcast
12:52 PM 36.0°F 32.0°F 86% 30.33 in 9.0 miles NNW 4.6 mph - N/A   Overcast
1:52 PM 37.9°F 32.0°F 79% 30.34 in 10.0 miles Calm Calm - N/A   Overcast
2:52 PM 37.0°F 32.0°F 82% 30.34 in 10.0 miles North 4.6 mph - N/A   Overcast
3:52 PM 37.0°F 32.0°F 82% 30.35 in 10.0 miles ENE 3.5 mph - N/A   Overcast
4:52 PM 37.0°F 30.9°F 79% 30.36 in 10.0 miles Calm Calm - N/A   Overcast
5:28 PM 37.4°F 30.2°F 75% 30.33 in 10.0 miles North 5.8 mph - N/A   Overcast
5:52 PM 37.0°F 30.9°F 79% 30.37 in 10.0 miles NE 4.6 mph - N/A   Overcast
6:27 PM 37.4°F 30.2°F 75% 30.34 in 10.0 miles NNE 6.9 mph - N/A   Overcast
6:52 PM 36.0°F 30.9°F 82% 30.38 in 10.0 miles North 4.6 mph - N/A   Overcast
7:52 PM 36.0°F 30.9°F 82% 30.39 in 10.0 miles North 5.8 mph - N/A   Overcast
8:52 PM 36.0°F 30.9°F 82% 30.39 in 10.0 miles NE 9.2 mph - N/A   Overcast
9:52 PM 35.1°F 30.0°F 82% 30.40 in 10.0 miles ENE 8.1 mph - N/A   Overcast
10:52 PM 35.1°F 30.0°F 82% 30.40 in 10.0 miles NE 6.9 mph - N/A   Overcast
11:52 PM 35.1°F 30.9°F 85% 30.40 in 10.0 miles Calm Calm - N/A   Overcast
Moon Phase
Nov. 14 Nov. 20 Nov. 28 Dec. 06 Dec. 13
Sunrise:07:00 AM (PST) Moon Rise:07:59 AM (PST)11/14
Sunset:04:22 PM (PST) Moon Set:05:11 PM (PST)11/14

Copyright © 2014 The Weather Underground, Inc.